| time (UTC) | temp F | wind direction | speed knots | gust knots | rain 1hr in | rain 24hr in | rain mn in | humidity % | barometer mb |
| 20260503053053 | 55 | 0 | 0.0 | 0.0 | 0.00 | 0.07 | 0.07 | 92 | 1010.2 |
| 20260503053016 | 56 | 0.0 | 0.0 | 0.00 | 0.07 | 0.07 | 93 | 1010.3 | |
| 20260503052015 | 56 | 0.0 | 1.7 | 0.00 | 0.07 | 0.07 | 92 | 1010.3 | |
| 20260503051553 | 55 | 0 | 0.0 | 1.7 | 0.00 | 0.07 | 0.07 | 92 | 1010.2 |
| 20260503051036 | 55 | 118 | 0.0 | 2.6 | 0.01 | 0.07 | 0.07 | 92 | 1010.4 |
| 20260503050052 | 55 | 0 | 0.9 | 3.5 | 0.01 | 0.07 | 0.07 | 92 | 1010.2 |
| 20260503050015 | 55 | 118 | 0.9 | 3.5 | 0.02 | 0.07 | 0.07 | 92 | 1010.3 |
| 20260503045015 | 55 | 125 | 0.0 | 1.7 | 0.03 | 0.07 | 0.07 | 92 | 1010.2 |
| 20260503044553 | 55 | 0 | 0.0 | 2.6 | 0.03 | 0.07 | 0.07 | 91 | 1010.1 |
| 20260503044056 | 55 | 125 | 0.9 | 2.6 | 0.04 | 0.07 | 0.07 | 92 | 1010.1 |
| 20260503043057 | 55 | 125 | 0.0 | 1.7 | 0.04 | 0.07 | 0.07 | 91 | 1010.1 |
| 20260503043015 | 56 | 125 | 0.9 | 1.7 | 0.05 | 0.07 | 0.07 | 92 | 1010.2 |
| 20260503042015 | 56 | 0.0 | 0.9 | 0.05 | 0.07 | 0.07 | 92 | 1010.3 | |
| 20260503041550 | 55 | 0 | 0.0 | 0.9 | 0.04 | 0.07 | 0.07 | 91 | 1010.2 |
| 20260503041036 | 56 | 0.0 | 0.0 | 0.04 | 0.06 | 0.06 | 91 | 1010.5 | |
| 20260503040056 | 55 | 0 | 0.0 | 0.9 | 0.03 | 0.05 | 0.05 | 91 | 1010.5 |
| 20260503040016 | 56 | 125 | 0.0 | 0.9 | 0.03 | 0.06 | 0.06 | 91 | 1010.6 |
| 20260503035015 | 56 | 125 | 0.0 | 1.7 | 0.02 | 0.04 | 0.04 | 91 | 1010.8 |
| 20260503034552 | 55 | 0 | 0.0 | 1.7 | 0.01 | 0.03 | 0.03 | 91 | 1010.8 |
| 20260503034015 | 56 | 0.0 | 0.9 | 0.01 | 0.03 | 0.03 | 91 | 1011.1 | |
| 20260503033051 | 55 | 0 | 0.0 | 0.0 | 0.00 | 0.02 | 0.02 | 90 | 1011.1 |
| 20260503033036 | 56 | 0.0 | 0.0 | 0.00 | 0.02 | 0.02 | 91 | 1011.2 | |
| 20260503032015 | 56 | 0.0 | 0.0 | 0.00 | 0.02 | 0.02 | 91 | 1011.3 | |
| 20260503031553 | 56 | 0 | 0.0 | 0.0 | 0.00 | 0.02 | 0.02 | 90 | 1011.2 |
| 20260503031016 | 56 | 0.0 | 0.0 | 0.00 | 0.02 | 0.02 | 91 | 1011.3 | |
| 20260503030049 | 56 | 0 | 0.0 | 0.9 | 0.00 | 0.02 | 0.02 | 90 | 1011.2 |
| 20260503030015 | 56 | 0.0 | 0.9 | 0.00 | 0.02 | 0.02 | 91 | 1011.2 | |
| 20260503025015 | 56 | 125 | 0.0 | 0.9 | 0.00 | 0.02 | 0.02 | 91 | 1011.1 |
| 20260503024550 | 56 | 0 | 0.0 | 0.9 | 0.00 | 0.02 | 0.02 | 90 | 1011.0 |
| 20260503024035 | 56 | 125 | 0.0 | 0.9 | 0.00 | 0.02 | 0.02 | 91 | 1011.2 |
| 20260503023048 | 56 | 0 | 0.0 | 1.7 | 0.00 | 0.02 | 0.02 | 90 | 1011.3 |
| 20260503023015 | 56 | 125 | 0.0 | 1.7 | 0.00 | 0.02 | 0.02 | 91 | 1011.3 |
| 20260503022015 | 56 | 0.0 | 0.0 | 0.00 | 0.02 | 0.02 | 91 | 1011.2 | |
| 20260503021548 | 56 | 0 | 0.0 | 1.7 | 0.00 | 0.02 | 0.02 | 90 | 1011.2 |
| 20260503021015 | 56 | 0.0 | 1.7 | 0.00 | 0.02 | 0.02 | 91 | 1011.2 | |
| 20260503020052 | 56 | 0 | 0.0 | 0.0 | 0.00 | 0.02 | 0.02 | 90 | 1011.2 |
| 20260503020035 | 56 | 0.0 | 0.0 | 0.00 | 0.02 | 0.02 | 91 | 1011.3 | |
| 20260503015035 | 56 | 0.0 | 0.0 | 0.00 | 0.02 | 0.02 | 91 | 1011.4 | |
| 20260503014600 | 56 | 0 | 0.0 | 0.0 | 0.00 | 0.02 | 0.02 | 90 | 1011.3 |
| 20260503014015 | 56 | 0.0 | 0.0 | 0.00 | 0.02 | 0.02 | 91 | 1011.4 | |
| 20260503013054 | 56 | 0 | 0.0 | 0.0 | 0.00 | 0.02 | 0.02 | 90 | 1011.3 |
| 20260503013035 | 56 | 0.0 | 0.0 | 0.00 | 0.02 | 0.02 | 91 | 1011.3 | |
| 20260503012015 | 56 | 0.0 | 0.9 | 0.00 | 0.02 | 0.02 | 90 | 1011.3 | |
| 20260503011554 | 56 | 0 | 0.0 | 0.9 | 0.00 | 0.02 | 0.02 | 90 | 1011.2 |
| 20260503011015 | 56 | 125 | 0.0 | 0.9 | 0.00 | 0.02 | 0.02 | 90 | 1011.4 |
| 20260503010053 | 56 | 0 | 0.0 | 0.0 | 0.00 | 0.02 | 0.02 | 90 | 1011.4 |
| 20260503010015 | 56 | 0.0 | 0.0 | 0.00 | 0.02 | 0.02 | 90 | 1011.6 | |
| 20260503005015 | 56 | 0.0 | 0.0 | 0.00 | 0.02 | 0.02 | 90 | 1011.5 | |
| 20260503004550 | 55 | 0 | 0.0 | 0.0 | 0.00 | 0.02 | 0.02 | 90 | 1011.4 |
| 20260503004035 | 56 | 0.0 | 0.0 | 0.00 | 0.02 | 0.02 | 90 | 1011.4 | |
| 20260503003051 | 56 | 0 | 0.0 | 0.0 | 0.00 | 0.02 | 0.02 | 89 | 1011.4 |
| 20260503003015 | 56 | 0.0 | 0.0 | 0.00 | 0.02 | 0.02 | 90 | 1011.5 | |
| 20260503002015 | 56 | 0.0 | 0.0 | 0.00 | 0.02 | 0.02 | 89 | 1011.6 | |
| 20260503001551 | 56 | 0 | 0.0 | 0.0 | 0.00 | 0.02 | 0.02 | 89 | 1011.6 |
| 20260503001015 | 56 | 0.0 | 0.0 | 0.01 | 0.02 | 0.02 | 89 | 1011.7 | |
| 20260503000051 | 56 | 0 | 0.0 | 2.6 | 0.00 | 0.02 | 0.02 | 89 | 1011.7 |
| 20260503000015 | 56 | 125 | 0.0 | 2.6 | 0.01 | 0.02 | 0.02 | 89 | 1011.9 |
| 20260502235015 | 56 | 126 | 0.9 | 5.2 | 0.02 | 0.02 | 0.02 | 89 | 1011.9 |
| 20260502234557 | 56 | 127 | 0.9 | 7.8 | 0.02 | 0.02 | 0.02 | 89 | 1011.8 |
| 20260502234015 | 56 | 106 | 1.7 | 7.8 | 0.02 | 0.02 | 0.02 | 89 | 1012.1 |
| 20260502233057 | 56 | 102 | 2.6 | 7.8 | 0.02 | 0.02 | 0.02 | 89 | 1012.2 |
| 20260502233035 | 56 | 111 | 2.6 | 7.8 | 0.02 | 0.02 | 0.02 | 89 | 1012.3 |
| 20260502232015 | 57 | 110 | 3.5 | 8.7 | 0.02 | 0.02 | 0.02 | 89 | 1012.6 |
| 20260502231603 | 56 | 114 | 4.3 | 8.7 | 0.02 | 0.02 | 0.02 | 89 | 1012.6 |
| 20260502231015 | 57 | 107 | 1.7 | 7.8 | 0.02 | 0.02 | 0.02 | 89 | 1013.0 |
| 20260502230053 | 57 | 117 | 2.6 | 8.7 | 0.01 | 0.01 | 0.01 | 89 | 1012.9 |
| 20260502230015 | 57 | 108 | 3.5 | 8.7 | 0.02 | 0.02 | 0.02 | 89 | 1012.9 |
| 20260502225015 | 57 | 102 | 3.5 | 7.0 | 0.00 | 0.00 | 0.00 | 88 | 1013.5 |
| 20260502224558 | 57 | 102 | 2.6 | 8.7 | 0.00 | 0.00 | 0.00 | 87 | 1013.6 |
| 20260502224015 | 57 | 112 | 2.6 | 8.7 | 0.00 | 0.00 | 0.00 | 87 | 1013.9 |
| 20260502223054 | 56 | 0 | 3.5 | 8.7 | 0.00 | 0.00 | 0.00 | 86 | 1013.9 |
| 20260502223015 | 57 | 102 | 3.5 | 8.7 | 0.00 | 0.00 | 0.00 | 87 | 1013.9 |
| 20260502222015 | 55 | 155 | 4.3 | 9.6 | 0.00 | 0.00 | 0.00 | 86 | 1014.2 |
| 20260502221600 | 55 | 135 | 1.7 | 8.7 | 0.00 | 0.00 | 0.00 | 86 | 1014.4 |
| 20260502221015 | 55 | 327 | 0.0 | 2.6 | 0.00 | 0.00 | 0.00 | 86 | 1013.1 |
| 20260502220055 | 54 | 0 | 0.0 | 1.7 | 0.00 | 0.00 | 0.00 | 86 | 1012.9 |
| 20260502220015 | 55 | 327 | 0.0 | 1.7 | 0.00 | 0.00 | 0.00 | 86 | 1012.9 |
| 20260502215015 | 55 | 327 | 0.0 | 2.6 | 0.00 | 0.00 | 0.00 | 86 | 1013.0 |
| 20260502214557 | 54 | 0 | 0.0 | 2.6 | 0.00 | 0.00 | 0.00 | 86 | 1013.1 |
| 20260502214015 | 55 | 327 | 0.0 | 2.6 | 0.00 | 0.00 | 0.00 | 86 | 1013.1 |
| 20260502213051 | 54 | 0 | 0.0 | 4.3 | 0.00 | 0.00 | 0.00 | 86 | 1013.2 |
| 20260502213015 | 55 | 327 | 0.0 | 4.3 | 0.00 | 0.00 | 0.00 | 86 | 1013.2 |
| 20260502212015 | 55 | 327 | 0.9 | 3.5 | 0.00 | 0.00 | 0.00 | 85 | 1013.4 |
| 20260502211552 | 54 | 327 | 0.0 | 1.7 | 0.00 | 0.00 | 0.00 | 85 | 1013.4 |
| 20260502211015 | 55 | 327 | 0.0 | 2.6 | 0.00 | 0.00 | 0.00 | 85 | 1013.5 |
| 20260502210100 | 55 | 0 | 0.0 | 3.5 | 0.00 | 0.00 | 0.00 | 85 | 1013.4 |
| 20260502210055 | 55 | 327 | 0.0 | 2.6 | 0.00 | 0.00 | 0.00 | 85 | 1013.6 |
| 20260502205015 | 55 | 327 | 0.0 | 3.5 | 0.00 | 0.00 | 0.00 | 85 | 1013.6 |
| 20260502204558 | 55 | 327 | 0.9 | 3.5 | 0.00 | 0.00 | 0.00 | 84 | 1013.6 |
| 20260502204015 | 56 | 327 | 0.0 | 3.5 | 0.00 | 0.00 | 0.00 | 85 | 1013.9 |
| 20260502203054 | 55 | 326 | 0.0 | 4.3 | 0.00 | 0.00 | 0.00 | 84 | 1013.8 |
| 20260502203035 | 56 | 326 | 0.0 | 4.3 | 0.00 | 0.00 | 0.00 | 84 | 1013.8 |
| 20260502202015 | 56 | 326 | 1.7 | 5.2 | 0.00 | 0.00 | 0.00 | 84 | 1014.0 |
| 20260502201552 | 56 | 0 | 0.9 | 5.2 | 0.00 | 0.00 | 0.00 | 83 | 1013.9 |
| 20260502201015 | 57 | 325 | 0.9 | 4.3 | 0.00 | 0.00 | 0.00 | 83 | 1014.1 |
| 20260502200053 | 56 | 0 | 0.0 | 4.3 | 0.00 | 0.00 | 0.00 | 83 | 1014.1 |
| 20260502200015 | 57 | 325 | 0.0 | 1.7 | 0.00 | 0.00 | 0.00 | 83 | 1014.2 |
| 20260502195015 | 57 | 325 | 0.0 | 3.5 | 0.00 | 0.00 | 0.00 | 83 | 1014.2 |
| 20260502194600 | 57 | 0 | 0.0 | 2.6 | 0.00 | 0.00 | 0.00 | 82 | 1014.2 |
| 20260502194015 | 57 | 325 | 0.0 | 4.3 | 0.00 | 0.00 | 0.00 | 82 | 1014.2 |
| 20260502193055 | 57 | 0 | 0.0 | 4.3 | 0.00 | 0.00 | 0.00 | 81 | 1014.1 |
| 20260502193015 | 58 | 324 | 0.9 | 4.3 | 0.00 | 0.00 | 0.00 | 82 | 1014.1 |
| 20260502192015 | 58 | 324 | 0.9 | 3.5 | 0.00 | 0.00 | 0.00 | 81 | 1014.3 |
| 20260502191555 | 58 | 0 | 0.0 | 5.2 | 0.00 | 0.00 | 0.00 | 80 | 1014.3 |
| 20260502191015 | 59 | 324 | 0.9 | 5.2 | 0.00 | 0.00 | 0.00 | 80 | 1014.4 |
| 20260502190051 | 59 | 322 | 0.0 | 3.5 | 0.00 | 0.00 | 0.00 | 79 | 1014.4 |
| 20260502190015 | 59 | 322 | 0.9 | 3.5 | 0.00 | 0.00 | 0.00 | 79 | 1014.4 |
| 20260502185015 | 60 | 322 | 0.9 | 5.2 | 0.00 | 0.00 | 0.00 | 78 | 1014.4 |
| 20260502184601 | 60 | 320 | 0.0 | 3.5 | 0.00 | 0.00 | 0.00 | 77 | 1014.3 |
| 20260502184035 | 60 | 318 | 0.0 | 2.6 | 0.00 | 0.00 | 0.00 | 76 | 1014.3 |
| 20260502183054 | 60 | 0 | 0.9 | 4.3 | 0.00 | 0.00 | 0.00 | 74 | 1014.3 |
| 20260502183015 | 61 | 318 | 0.9 | 4.3 | 0.00 | 0.00 | 0.00 | 74 | 1014.3 |
| 20260502182014 | 61 | 315 | 0.9 | 3.5 | 0.00 | 0.00 | 0.00 | 73 | 1014.3 |
| 20260502181554 | 61 | 315 | 0.0 | 4.3 | 0.00 | 0.00 | 0.00 | 72 | 1014.2 |
| 20260502181015 | 62 | 315 | 0.9 | 4.3 | 0.00 | 0.00 | 0.00 | 72 | 1014.4 |
| 20260502164015 | 66 | 326 | 2.6 | 7.0 | 0.00 | 0.00 | 0.00 | 50 | 1015.2 |
| 20260502163053 | 65 | 360 | 1.7 | 9.6 | 0.00 | 0.00 | 0.00 | 49 | 1015.3 |
| 20260502163017 | 66 | 277 | 1.7 | 9.6 | 0.00 | 0.00 | 0.00 | 52 | 1015.3 |
| 20260502162017 | 66 | 276 | 2.6 | 7.0 | 0.00 | 0.00 | 0.00 | 51 | 1015.4 |
| 20260502161549 | 65 | 360 | 2.6 | 7.0 | 0.00 | 0.00 | 0.00 | 48 | 1015.4 |
| 20260502161015 | 66 | 310 | 3.5 | 7.0 | 0.00 | 0.00 | 0.00 | 51 | 1015.5 |
| 20260502152035 | 67 | 310 | 2.6 | 7.8 | 0.00 | 0.00 | 0.00 | 53 | 1015.9 |
| 20260502151606 | 66 | 360 | 0.9 | 8.7 | 0.00 | 0.00 | 0.00 | 52 | 1015.9 |
| 20260502151017 | 65 | 262 | 3.5 | 9.6 | 0.00 | 0.00 | 0.00 | 52 | 1016.0 |
| 20260502123104 | 64 | 210 | 6.1 | 13.9 | 0.00 | 0.00 | 0.00 | 69 | 1017.0 |
| 20260502123017 | 65 | 231 | 6.1 | 13.0 | 0.00 | 0.00 | 0.00 | 71 | 1017.1 |
| 20260502122017 | 65 | 302 | 6.1 | 13.9 | 0.00 | 0.00 | 0.00 | 72 | 1017.2 |
| 20260502121555 | 65 | 360 | 6.1 | 13.9 | 0.00 | 0.00 | 0.00 | 71 | 1017.2 |
| 20260502121017 | 65 | 248 | 5.2 | 11.3 | 0.00 | 0.00 | 0.00 | 72 | 1017.3 |
| 20260502115036 | 66 | 241 | 5.2 | 12.2 | 0.00 | 0.00 | 0.00 | 72 | 1017.3 |
| 20260502114549 | 65 | 211 | 7.8 | 12.2 | 0.00 | 0.00 | 0.00 | 71 | 1017.3 |
| 20260502114017 | 66 | 332 | 6.1 | 11.3 | 0.00 | 0.00 | 0.00 | 72 | 1017.4 |
| 20260502113057 | 66 | 222 | 6.1 | 10.4 | 0.00 | 0.00 | 0.00 | 71 | 1017.4 |
| 20260502113054 | 65 | 360 | 6.1 | 10.4 | 0.00 | 0.00 | 0.00 | 71 | 1017.3 |
| 20260502112017 | 66 | 208 | 3.5 | 11.3 | 0.00 | 0.00 | 0.00 | 73 | 1017.4 |
| 20260502111559 | 65 | 207 | 3.5 | 11.3 | 0.00 | 0.00 | 0.00 | 73 | 1017.4 |
| 20260502111017 | 65 | 251 | 4.3 | 12.2 | 0.00 | 0.00 | 0.00 | 73 | 1017.6 |
| 20260502110056 | 65 | 209 | 4.3 | 10.4 | 0.00 | 0.00 | 0.00 | 74 | 1017.5 |
| 20260502110017 | 65 | 269 | 5.2 | 10.4 | 0.00 | 0.00 | 0.00 | 75 | 1017.6 |
| 20260502105016 | 64 | 309 | 5.2 | 14.8 | 0.00 | 0.00 | 0.00 | 76 | 1017.6 |
| 20260502104551 | 64 | 208 | 5.2 | 14.8 | 0.00 | 0.00 | 0.00 | 76 | 1017.6 |
| 20260502104016 | 65 | 212 | 6.1 | 12.2 | 0.00 | 0.00 | 0.00 | 75 | 1017.6 |
| 20260502103104 | 65 | 360 | 4.3 | 10.4 | 0.00 | 0.00 | 0.00 | 75 | 1017.6 |
| 20260502103017 | 66 | 211 | 4.3 | 10.4 | 0.00 | 0.00 | 0.00 | 76 | 1017.6 |
| 20260502102016 | 66 | 360 | 3.5 | 7.8 | 0.00 | 0.00 | 0.00 | 76 | 1017.6 |
| 20260502101603 | 65 | 360 | 5.2 | 13.9 | 0.00 | 0.00 | 0.00 | 75 | 1017.5 |
| 20260502101016 | 65 | 360 | 2.6 | 9.6 | 0.00 | 0.00 | 0.00 | 77 | 1017.6 |
| 20260502100118 | 64 | 210 | 4.3 | 9.6 | 0.00 | 0.00 | 0.00 | 76 | 1017.6 |
| 20260502091015 | 60 | 150 | 0.9 | 5.2 | 0.00 | 0.00 | 0.00 | 85 | 1017.6 |
| 20260502090105 | 59 | 150 | 1.7 | 6.1 | 0.00 | 0.00 | 0.00 | 84 | 1017.6 |
| 20260502071035 | 59 | 0.0 | 0.9 | 0.00 | 0.00 | 0.00 | 75 | 1017.7 | |
| 20260502070058 | 59 | 0 | 0.0 | 1.7 | 0.00 | 0.00 | 0.00 | 74 | 1017.6 |
| 20260502070056 | 59 | 128 | 0.0 | 1.7 | 0.00 | 0.00 | 0.00 | 74 | 1017.7 |
| 20260502065036 | 58 | 128 | 0.0 | 0.9 | 0.00 | 0.00 | 0.00 | 73 | 1017.6 |
| 20260502064606 | 58 | 0 | 0.0 | 0.9 | 0.00 | 0.00 | 0.00 | 73 | 1017.6 |
| 20260502064016 | 58 | 128 | 0.0 | 0.9 | 0.00 | 0.00 | 0.00 | 72 | 1017.5 |
| 20260502063052 | 57 | 0 | 0.0 | 4.3 | 0.00 | 0.00 | 0.00 | 71 | 1017.6 |
| 20260502063016 | 57 | 128 | 0.0 | 4.3 | 0.00 | 0.00 | 0.00 | 72 | 1017.7 |
| 20260502062016 | 57 | 128 | 0.9 | 3.5 | 0.00 | 0.00 | 0.00 | 70 | 1017.6 |
| 20260502061611 | 56 | 128 | 0.0 | 1.7 | 0.00 | 0.00 | 0.00 | 70 | 1017.5 |
| 20260502061016 | 56 | 128 | 0.0 | 1.7 | 0.00 | 0.00 | 0.00 | 70 | 1017.6 |
| 20260502060054 | 54 | 0 | 0.0 | 3.5 | 0.00 | 0.00 | 0.00 | 69 | 1017.5 |
| 20260502060016 | 54 | 128 | 0.9 | 3.5 | 0.00 | 0.00 | 0.00 | 70 | 1017.7 |
| 20260502055015 | 53 | 0.0 | 0.0 | 0.00 | 0.00 | 0.00 | 71 | 1017.4 | |
| 20260502054552 | 53 | 0 | 0.0 | 0.0 | 0.00 | 0.00 | 0.00 | 71 | 1017.3 |
| 20260502054016 | 53 | 0.0 | 0.0 | 0.00 | 0.00 | 0.00 | 72 | 1017.4 |